Regional Weather Roundup
Issued by NWS

Home | Current Version | Previous Version | Text Only | Print | Product List | Glossary On
Versions: 1 2 3 4 5 6 7 8 9 10 11 12 13 14 15 16 17 18 19 20 21 22 23 24 25 26 27 28 29 30 31 32 33 34 35 36 37 38 39 40 41 42 43 44 45 46 47 48 49 50
000
ASUS45 KREV 191410
RWRNV
NEVADA REGIONAL WEATHER ROUNDUP
NATIONAL WEATHER SERVICE RENO NV
600 AM PST FRI DEC 19 2014

NOTE: "FAIR" INDICATES FEW OR NO CLOUDS BELOW 12,000 FEET WITH NO
SIGNIFICANT WEATHER AND/OR OBSTRUCTIONS TO VISIBILITY.

NVZ001-003-004-191500-
WESTERN NEVADA

CITY           SKY/WX    TMP DP  RH WIND       PRES   REMARKS
RENO           PTCLDY    32  27  81 CALM      30.06S
CARSON CITY    FAIR      37  14  38 E5        30.08S
MINDEN         FAIR      27  18  69 CALM      30.09
SLIDE MTN        N/A     23   3  42 W55         N/A
PYRAMID LAKE     N/A     43 N/A N/A SE13        N/A
FALLON         PTCLDY    33  25  72 S7        30.10S
LOVELOCK       PTCLDY    26  21  81 W7        30.09F
HAWTHORNE      CLEAR     32  28  86 SE6       30.12F
$$

NVZ002-CAZ072-073-191500-
NORTHERN AND CENTRAL SIERRA

CITY           SKY/WX    TMP DP  RH WIND       PRES   REMARKS
S. LAKE TAHOE  CLOUDY    39   9  29 SW9G17    30.11R
TRUCKEE        MOCLDY    36  18  48 SW14      30.10S
SQUAW VLY 8000   N/A     25  25 100 VRB28       N/A
SUSANVILLE     CLOUDY    37  34  87 CALM      30.04
BLUE CANYON    LGT RAIN  37  28  70 S13G22    30.14F
MAMMOTH LAKES  FAIR      18  16  93 W5        30.16F
BRIDGEPORT     FAIR      37  10  32 NW8       30.08S
$$

NVZ030-031-036-191500-
NORTHERN NEVADA

CITY           SKY/WX    TMP DP  RH WIND       PRES   REMARKS
ELKO           CLOUDY    27  24  89 CALM      30.14R
WINNEMUCCA     CLOUDY    38  29  70 S7        30.07F
WENDOVER       CLOUDY    25  23  93 CALM      30.17S
$$

NVZ035-037-191500-
CENTRAL NEVADA

CITY           SKY/WX    TMP DP  RH WIND       PRES   REMARKS
ELY            MOCLDY    18  15  88 S9        30.19R
EUREKA           N/A     26  22  84 SE3       30.17R
$$

NVZ013-014-191500-
SOUTH CENTRAL NEVADA

CITY           SKY/WX    TMP DP  RH WIND       PRES   REMARKS
TONOPAH        CLOUDY    28  24  85 N5        30.20S
$$

NVZ017-020-022-191500-
SOUTHERN NEVADA

CITY           SKY/WX    TMP DP  RH WIND       PRES   REMARKS
LAS VEGAS      PTCLDY    41  35  79 SW6       30.20R
N. LAS VEGAS   PTCLDY    39  32  76 CALM      30.23R
NELLIS AFB     PTCLDY    37  35  92 N5        30.25R
HENDERSON      PTCLDY    37  33  85 S5        30.25R
MERCURY        NOT AVBL
$$



USA.gov is the U.S. government's official web portal to all federal, state and local government web resources and services.